Weather History for KLHB - December, 2012

Change the Weather History Date:

Wednesday, December 26, 2012

  Actual Average (KCLL) Record (KCLL)
Temperature  
Mean Temperature 37 °F 51 °F  
Max Temperature 42 °F 61 °F 80 °F (1916)
Min Temperature 30 °F 41 °F 12 °F (1983)
Degree Days  
Heating Degree Days 28 15  
Month to date heating degree days 337  
Since 1 July heating degree days 562  
Cooling Degree Days 0 0  
Month to date cooling degree days 13  
Year to date cooling degree days 3086  
Moisture  
Dew Point 17 °F    
Average Humidity 48    
Maximum Humidity 69    
Minimum Humidity 31    
Precipitation  
Precipitation 0.00 in 0.11 in 1.73 in (1990)
Month to date precipitation 2.72  
Year to date precipitation 39.55  
Sea Level Pressure  
Sea Level Pressure 30.21 in    
Wind  
Wind Speed 12 mph (NW)    
Max Wind Speed 24 mph    
Max Gust Speed 29 mph    
Visibility 10 miles    
Events      
T = Trace of Precipitation, MM = Missing Value Source: NWS Daily Summary

Daily Weather History Graph

Daily Weather History Graph

Search for Another Location

Airport or City:

Trip Planner

Search our weather history database for the weather conditions in past years. The results will help you decide how hot, cold, wet, or windy it might be!

Date:

Astronomy

Dec. 26, 2012 Rise Set
Actual Time 7:22 AM CST 5:32 PM CST
Civil Twilight 6:56 AM CST 5:58 PM CST
Nautical Twilight 6:25 AM CST 6:28 PM CST
Astronomical Twilight 5:56 AM CST 6:58 PM CST
Moon 4:24 PM CST 5:48 AM CST
Length of Visible Light 11h 02m
Length of Day
10h 09m
Waxing Gibbous, 97% of the Moon is Illuminated
Dec 26
Waxing Gibbous
Dec 28
Full
Jan 4
Last Quarter
Jan 11
New
Jan 18
First Quarter

Hourly Weather History & Observations

Time (CST) Temp. Windchill Dew Point Humidity Pressure Visibility Wind Dir Wind Speed Gust Speed Precip Events Conditions
12:15 AM 35.6 °F 23.7 °F 19.4 °F 52% 30.15 in 10.0 mi NW 24.2 mph 28.8 mph N/A   Overcast
12:35 AM 35.6 °F 24.5 °F 19.4 °F 52% 30.16 in 10.0 mi NW 20.7 mph 27.6 mph N/A   Overcast
1:15 AM 35.6 °F 25.5 °F 19.4 °F 52% 30.17 in 10.0 mi NW 17.3 mph 28.8 mph N/A   Overcast
1:35 AM 35.6 °F 26.2 °F 19.4 °F 52% 30.16 in 10.0 mi NW 15.0 mph 24.2 mph N/A   Overcast
1:55 AM 35.6 °F 24.8 °F 19.4 °F 52% 30.16 in 10.0 mi NW 19.6 mph 27.6 mph N/A   Overcast
2:15 AM 35.6 °F 25.9 °F 19.4 °F 52% 30.16 in 10.0 mi NW 16.1 mph 26.5 mph N/A   Overcast
2:35 AM 35.6 °F 24.5 °F 19.4 °F 52% 30.16 in 10.0 mi NW 20.7 mph 26.5 mph N/A   Overcast
2:55 AM 35.6 °F 25.5 °F 19.4 °F 52% 30.17 in 10.0 mi NW 17.3 mph 25.3 mph N/A   Overcast
3:15 AM 35.6 °F 24.8 °F 19.4 °F 52% 30.18 in 10.0 mi NW 19.6 mph 26.5 mph N/A   Overcast
3:35 AM 35.6 °F 25.2 °F 17.6 °F 48% 30.18 in 10.0 mi NW 18.4 mph 24.2 mph N/A   Overcast
3:55 AM 35.6 °F 26.2 °F 19.4 °F 52% 30.18 in 10.0 mi NW 15.0 mph 21.9 mph N/A   Overcast
4:15 AM 33.8 °F 24.3 °F 17.6 °F 52% 30.19 in 10.0 mi NW 13.8 mph 26.5 mph N/A   Overcast
4:35 AM 33.8 °F 23.9 °F 17.6 °F 52% 30.19 in 10.0 mi NW 15.0 mph - N/A   Overcast
5:15 AM 33.8 °F 23.9 °F 17.6 °F 52% 30.21 in 10.0 mi NW 15.0 mph 21.9 mph N/A   Overcast
5:35 AM 32.0 °F 21.6 °F 15.8 °F 51% 30.22 in 10.0 mi NW 15.0 mph 24.2 mph N/A   Overcast
6:15 AM 32.0 °F 20.8 °F 17.6 °F 55% 30.24 in 10.0 mi WNW 17.3 mph 21.9 mph N/A   Overcast
6:35 AM 32.0 °F 22.1 °F 15.8 °F 51% 30.25 in 10.0 mi WNW 13.8 mph 21.9 mph N/A   Overcast
6:55 AM 32.0 °F 21.6 °F 15.8 °F 51% 30.27 in 10.0 mi WNW 15.0 mph 21.9 mph N/A   Overcast
7:15 AM 32.0 °F 22.5 °F 14.0 °F 48% 30.28 in 10.0 mi WNW 12.7 mph 21.9 mph N/A   Overcast
7:35 AM 32.0 °F 23.0 °F 14.0 °F 48% 30.29 in 10.0 mi WNW 11.5 mph 17.3 mph N/A   Overcast
7:55 AM 32.0 °F 21.6 °F 15.8 °F 51% 30.28 in 10.0 mi WNW 15.0 mph 21.9 mph N/A   Overcast
8:15 AM 32.0 °F 21.2 °F 15.8 °F 51% 30.28 in 10.0 mi NW 16.1 mph 23.0 mph N/A   Overcast
8:35 AM 32.0 °F 20.8 °F 15.8 °F 51% 30.29 in 10.0 mi NW 17.3 mph 23.0 mph N/A   Overcast
8:55 AM 32.0 °F 21.2 °F 15.8 °F 51% 30.29 in 10.0 mi NW 16.1 mph 21.9 mph N/A   Overcast
9:15 AM 32.0 °F 20.8 °F 14.0 °F 48% 30.30 in 10.0 mi NW 17.3 mph - N/A   Mostly Cloudy
9:35 AM 33.8 °F 23.2 °F 14.0 °F 44% 30.30 in 10.0 mi NW 17.3 mph 23.0 mph N/A   Scattered Clouds
9:55 AM 33.8 °F 24.3 °F 14.0 °F 44% 30.30 in 10.0 mi NW 13.8 mph 23.0 mph N/A   Clear
10:15 AM 33.8 °F 23.5 °F 14.0 °F 44% 30.30 in 10.0 mi NW 16.1 mph 21.9 mph N/A   Clear
10:35 AM 35.6 °F 25.9 °F 14.0 °F 41% 30.30 in 10.0 mi NW 16.1 mph 23.0 mph N/A   Clear
10:55 AM 35.6 °F 27.1 °F 14.0 °F 41% 30.31 in 10.0 mi NW 12.7 mph 17.3 mph N/A   Clear
11:15 AM 37.4 °F 32.8 °F 14.0 °F 38% 30.30 in 10.0 mi NNW 5.8 mph 18.4 mph N/A   Clear
11:35 AM 37.4 °F 29.3 °F 14.0 °F 38% 30.29 in 10.0 mi NW 12.7 mph 17.3 mph N/A   Clear
11:55 AM 39.2 °F 34.2 °F 12.2 °F 33% 30.27 in 10.0 mi NNW 6.9 mph 16.1 mph N/A   Clear
12:15 PM 39.2 °F 33.6 °F 12.2 °F 33% 30.25 in 10.0 mi NNW 8.1 mph - N/A   Clear
12:35 PM 41.0 °F 34.3 °F 12.2 °F 31% 30.24 in 10.0 mi North 11.5 mph 16.1 mph N/A   Clear
12:55 PM 41.0 °F - 12.2 °F 31% 30.23 in 10.0 mi Calm Calm - N/A   Clear
1:15 PM 41.0 °F - 12.2 °F 31% 30.23 in 10.0 mi Calm Calm - N/A   Clear
1:35 PM 41.0 °F - 14.0 °F 33% 30.23 in 10.0 mi Calm Calm - N/A   Clear
1:55 PM 42.8 °F 38.0 °F 14.0 °F 31% 30.22 in 10.0 mi NW 8.1 mph - N/A   Clear
2:15 PM 41.0 °F - 14.0 °F 33% 30.21 in 10.0 mi Calm Calm - N/A   Clear
2:35 PM 41.0 °F - 14.0 °F 33% 30.21 in 10.0 mi Calm Calm - N/A   Clear
2:55 PM 42.8 °F - 14.0 °F 31% 30.20 in 10.0 mi Calm Calm - N/A   Clear
3:15 PM 42.8 °F 41.1 °F 14.0 °F 31% 30.19 in 10.0 mi NW 3.5 mph - N/A   Clear
3:35 PM 42.8 °F - 14.0 °F 31% 30.18 in 10.0 mi Calm Calm - N/A   Clear
3:55 PM 42.8 °F - 15.8 °F 34% 30.19 in 10.0 mi Calm Calm - N/A   Clear
4:15 PM 42.8 °F - 15.8 °F 34% 30.18 in 10.0 mi Calm Calm - N/A   Clear
4:35 PM 41.0 °F - 17.6 °F 39% 30.17 in 10.0 mi Calm Calm - N/A   Clear
4:55 PM 41.0 °F - 17.6 °F 39% 30.17 in 10.0 mi Calm Calm - N/A   Clear
5:15 PM 41.0 °F - 17.6 °F 39% 30.16 in 10.0 mi Calm Calm - N/A   Clear
5:35 PM 39.2 °F - 19.4 °F 45% 30.17 in 10.0 mi Calm Calm - N/A   Clear
5:55 PM 39.2 °F - 19.4 °F 45% 30.17 in 10.0 mi Calm Calm - N/A   Clear
6:15 PM 37.4 °F - 19.4 °F 48% 30.17 in 10.0 mi Calm Calm - N/A   Clear
6:35 PM 35.6 °F - 19.4 °F 52% 30.17 in 10.0 mi Calm Calm - N/A   Clear
7:15 PM 33.8 °F - 21.2 °F 60% 30.17 in 10.0 mi Calm Calm - N/A   Clear
7:35 PM 35.6 °F - 21.2 °F 56% 30.17 in 10.0 mi Calm Calm - N/A   Clear
7:55 PM 33.8 °F - 21.2 °F 60% 30.17 in 10.0 mi Calm Calm - N/A   Clear
8:15 PM 33.8 °F - 21.2 °F 60% 30.18 in 10.0 mi Calm Calm - N/A   Clear
8:35 PM 33.8 °F - 21.2 °F 60% 30.18 in 10.0 mi Calm Calm - N/A   Clear
8:55 PM 33.8 °F - 21.2 °F 60% 30.18 in 10.0 mi Calm Calm - N/A   Clear
9:15 PM 33.8 °F - 21.2 °F 60% 30.18 in 10.0 mi Calm Calm - N/A   Clear
9:35 PM 32.0 °F - 21.2 °F 64% 30.19 in 10.0 mi Calm Calm - N/A   Clear
9:55 PM 32.0 °F - 21.2 °F 64% 30.18 in 10.0 mi Calm Calm - N/A   Clear
10:15 PM 32.0 °F - 23.0 °F 69% 30.18 in 10.0 mi Calm Calm - N/A   Clear
10:35 PM 32.0 °F - 23.0 °F 69% 30.17 in 10.0 mi Calm Calm - N/A   Clear
10:55 PM 32.0 °F - 23.0 °F 69% 30.16 in 10.0 mi Calm Calm - N/A   Clear
11:15 PM 32.0 °F - 23.0 °F 69% 30.17 in 10.0 mi Calm Calm - N/A   Clear
11:35 PM 32.0 °F - 21.2 °F 64% 30.17 in 10.0 mi Calm Calm - N/A   Clear
11:55 PM 30.2 °F - 21.2 °F 69% 30.16 in 10.0 mi Calm Calm - N/A   Clear